Simultaneous Nadir Overpasses (SNOs) Predictions

Prediction of SNOs between AQUA and METOP-A Satellite Orbit:

Table of predicted SNOs for the next 14.0 days since TLE Epoch: 9/1/2017
Index Date (AQUA) Time (AQUA) Lat,Lon (AQUA) SZA (AQUA ) Date (METOP-A) Time (METOP-A) Lat,Lon (METOP-A) SZA (METOP-A ) Distance(km) Time Diff (sec)
1 09/04/2017 06:39:04 73.90, 74.25 66.81 09/04/2017 06:38:10 73.92, 74.18 66.85 3.41 54
2 09/04/2017 07:28:31 -73.98,-118.29 113.09 09/04/2017 07:28:51 -73.97,-118.38 113.10 2.91 20
3 09/04/2017 08:18:11 74.62, 47.85 67.61 09/04/2017 08:19:17 74.64, 50.65 67.54 82.63 66
4 09/07/2017 02:13:19 73.94, 140.61 67.89 09/07/2017 02:12:29 73.93, 140.60 67.89 1.15 50
5 09/07/2017 03:02:46 -74.02, -51.94 112.01 09/07/2017 03:03:09 -74.03, -51.84 112.01 3.23 23
6 09/09/2017 21:47:34 73.93,-152.94 68.94 09/09/2017 21:46:49 73.93,-152.99 68.94 1.34 45
7 09/09/2017 22:37:01 -74.01, 14.51 110.97 09/09/2017 22:37:29 -74.03, 14.58 110.95 2.73 28
8 09/12/2017 17:21:49 73.93, -86.51 70.00 09/12/2017 17:21:09 73.93, -86.58 70.01 1.99 40
9 09/12/2017 18:11:16 -74.01, 80.95 109.90 09/12/2017 18:11:49 -74.03, 80.99 109.89 2.25 33
10 09/15/2017 12:56:03 73.94, -20.10 71.09 09/15/2017 12:55:28 73.93, -20.17 71.08 2.59 35
11 09/15/2017 13:45:30 -74.02, 147.37 108.82 09/15/2017 13:46:08 -74.03, 147.40 108.81 1.24 38




NCC Satellite Simultaneous Nadir Overpasses (SNOs) Prediction Service
